Tracking 30703 objects as of 12-Jun-2025
HD Live streaming from Space Station
objects crossing your sky now

STARLINK-5601

Track STARLINK-5601 now!
10-day predictions
STARLINK-5601 is classified as:


NORAD ID: 55744
Int'l Code: 2023-028D
Perigee: 576.5 km
Apogee: 581.9 km
Inclination: 70.0 °
Period: 96.1 minutes
Semi major axis: 6950 km
RCS: Unknown
Launch date: March 3, 2023
Source: United States (US)
Launch site: AIR FORCE WESTERN TEST RANGE (AFWTR)
Your satellite tracking list
Your tracking list is empty




NASA's NSSDC Master Catalog

Two Line Element Set (TLE):
1 55744U 23028D   25162.55750482  .00000239  00000-0  27858-4 0  9990
2 55744  69.9988 208.2156 0003913 265.4841  94.5871 14.98328042125425
Source of the keplerian elements: AFSPC